Home > Weather > Irving > Past weeks

Flag for USA Past Weather in Irving, Texas, USA — Yesterday and Last 2 Weeks

Now
84 °F

Partly sunny.


Feels Like: 88 °F
Forecast: 72 / 84 °F
Wind: 5 mph from South

Location: Dallas / Fort Worth International Airport

Current Time: May 31, 2016 at 1:18:03 PM

Latest Report: May 31, 2016 at 12:53 PM


Visibility: 10 mi

Pressure: 29.83 "Hg

Humidity: 61%

Dew Point: 69 °F

Location of IrvingLocation

Past Weather in Irving — Graph

°F

Irving Temperature Yesterday

Maximum temperature yesterday: 84 °F (at 4:53 PM)
Minimum temperature yesterday: 69 °F (at 4:53 AM)
Average temperature yesterday: 76 °F

High & Low Weather Summary for the Past Weeks

 TemperatureHumidityPressure
High88 °F (May 29, 3:53 PM)90% (May 17, 6:02 AM)30.14 "Hg (May 17, 6:02 AM)
Low57 °F (May 18, 7:53 AM)45% (May 20, 5:53 PM)29.65 "Hg (May 27, 3:53 AM)
Average74 °F73%29.92 "Hg
* Reported May 16 10:53 AM — May 31 10:53 AM, Irving, Weather by CustomWeather, © 2016

Note: Actual official high and low records may vary slightly from our data, if they occured in-between our weather recording intervals... More about our weather records

Advertising

Irving Weather History for the Previous 24 Hours

Scroll right to see more
 ConditionsComfort  
Time TempWeatherWind HumidityBarometerVisibility
10:53 AM
Tue, May 31
81 °FPartly sunny.9 mph72%29.87 "Hg10 mi
9:53 AM80 °FPartly sunny.6 mph74%29.88 "Hg10 mi
8:53 AM78 °FBroken clouds.14 mph79%29.86 "Hg10 mi
7:53 AM75 °FPartly sunny.10 mph88%29.85 "Hg10 mi
7:18 AM74 °FPassing clouds.6 mph88%29.83 "Hg10 mi
6:53 AM74 °FPassing clouds.6 mph88%29.83 "Hg10 mi
5:53 AM74 °FPartly cloudy.10 mph85%29.83 "Hg10 mi
4:53 AM74 °FPassing clouds.8 mph79%29.83 "Hg10 mi
3:53 AM75 °FPassing clouds.8 mph74%29.83 "Hg10 mi
2:53 AM75 °FPartly cloudy.5 mph74%29.86 "Hg10 mi
1:53 AM76 °FPassing clouds.7 mph69%29.87 "Hg10 mi
12:53 AM77 °FPassing clouds.5 mph71%29.88 "Hg10 mi
11:53 PM
Mon, May 30
76 °FPassing clouds.3 mph69%29.88 "Hg10 mi
10:53 PM75 °FOvercast.5 mph71%29.89 "Hg10 mi
9:53 PM77 °FOvercast.7 mph64%29.89 "Hg10 mi
8:53 PM77 °FPartly sunny.6 mph62%29.87 "Hg10 mi
7:53 PM80 °FPassing clouds.6 mph58%29.87 "Hg10 mi
6:53 PM83 °FPassing clouds.No wind48%29.86 "Hg10 mi
5:53 PM83 °FScattered clouds.5 mph50%29.87 "Hg10 mi
4:53 PM84 °FPartly sunny.No wind48%29.89 "Hg10 mi
3:53 PM83 °FScattered clouds.6 mph51%29.92 "Hg10 mi
2:53 PM82 °FPartly sunny.5 mph53%29.94 "Hg10 mi
1:53 PM81 °FBroken clouds.5 mph51%29.95 "Hg10 mi
Weather by CustomWeather, © 2016

See weather overviewHow to use our weather pages